Starlink 11519

operational
NORAD ID: 62560 Int'l Des: 2025-006 Owner: SPXS Country: US Constellation: starlink
LEOCIRCULAR

About Starlink 11519

Description loading...

Live Position

Loading 3D Globe...

Upcoming Passes

Altitude History

Altitude vs Time

uPlot chart will show altitude changes over time

Two-Line Element Set

1 62560U 25006G 25346.93492194 .00140323 00000-0 10756-2 0 9997
2 62560 43.0005 303.2261 0004738 289.0523 70.9831 15.70898040 52952
Epoch: Dec 12, 2025 • Age: 17 hours

Current Status

Altitude 355.2 km
Velocity 7.70 km/s
Sub-Earth Point 18.14°N, 6.81°E
Launch Date Jan 10, 2025
Age 0.9 years
Type internet

Technical Details

Classification Payload
Mass 960.00 kg
Dry Mass 910.00 kg
Total Mass 960.00 kg
Length 0.30 m
Diameter 4.10 m
Span 29.00 m
Shape Box + pan
Manufacturer SPXS
Bus Type Starlink V2MD
Phase Status In Orbit
Owner/State SPXS/US

Large Constellations

Loading constellations...